Regional Weather Roundup
Issued by NWS Newport/Morehead, NC

Current Version | Previous Version | Text Only | Print | Product List | Glossary On
Versions: 1 2 3 4 5 6 7 8 9 10 11 12 13 14 15 16 17 18 19 20 21 22 23 24 25 26 27 28 29 30 31 32 33 34 35 36 37 38 39 40 41 42 43 44 45 46 47 48 49 50
000
ASUS42 KMHX 300912
RWRMHX
WEATHER ROUNDUP FOR EASTERN NORTH CAROLINA
NATIONAL WEATHER SERVICE NEWPORT/MOREHEAD CITY NC
500 AM EDT MON MAR 30 2015

NOTE: "FAIR" INDICATES FEW OR NO CLOUDS BELOW 12,000 FEET
WITH NO SIGNIFICANT WEATHER AND/OR OBSTRUCTIONS TO VISIBILITY

NCZ015>017-031-032-045>047-102-103-301000-
NORTH COAST

CITY           SKY/WX    TMP DP  RH WIND       PRES   REMARKS
EDENTON        PTCLDY    40  31  70 S8        30.16F
ELIZABETH CITY PTCLDY    41  29  62 S12       30.15F
KITTY HAWK     PTSUNNY   41  30  64 SW6       30.16F
MANTEO         PTCLDY    41  30  65 SW12      30.18F

$$

NCZ045>047-081-094-103-104-301000-
CENTRAL COAST

CITY           SKY/WX    TMP DP  RH WIND       PRES   REMARKS
FRISCO         CLEAR     46  26  45 W12G20    30.20F
SWANQUARTER      N/A     46 N/A N/A SW14G22   30.15S

$$

NCZ095-097-098-100-101-301000-
SOUTHERN COAST

CITY           SKY/WX    TMP DP  RH WIND       PRES   REMARKS
BEAUFORT       PTCLDY    48  32  53 SW14      30.20F
CEDAR ISLAND     N/A     41 N/A N/A S5        30.24S
JACKSONVILLE   CLEAR     41  25  53 S7        30.19F
PINEY ISLAND   SUNNY    N/A N/A N/A S6        30.20F
WILMINGTON     CLEAR     33  30  88 S3        30.20F


$$

NCZ011>013-027>030-043-044-078>080-089-090>093-098-301000-
COASTAL PLAIN

CITY           SKY/WX    TMP DP  RH WIND       PRES   REMARKS
AHOSKIE        PTCLDY    38  21  51 S6        30.13F
CLINTON        CLEAR     38  32  78 S3        30.19S
ELIZABETHTOWN  CLEAR     38  32  77 S5        30.19S
GOLDSBORO      CLEAR     40  38  92 S8        30.15F
GREENVILLE     PTCLDY    37  28  70 SW8       30.17F
HAVELOCK       PTCLDY    30  27  88 S5        30.21F
KENANSVILLE    CLEAR     38  30  74 SW3       30.19F
KINSTON        CLEAR     38  30  72 S7        30.18F
NEW BERN       CLEAR     38  26  62 S6        30.20F
RICHLANDS      CLEAR     34  27  75 S7        30.19F
ROCKY MOUNT    PTCLDY    40  25  55 S10       30.14F
WASHINGTON     CLEAR     37  26  65 SW6       30.18F
WHITEVILLE     CLEAR     38  32  77 S5        30.20F

$$

AMZ130-135-150-152-154-156-158-170-250-252-270-ANZ085-086-088-633-658-670-301000-
MARINE OBSERVATIONS

STATION/POSITION TIME  TEMP    WIND        PRES    WAVE   SWELL
                       AIR SEA DIR/SP/G            HT/PER HT/PER
                 (UTC) (F)     (DEG/KT/KT) (MB)    (FT/S) (FT/S)
CHESAPEAKE LIGHT 0800   42     200/ 19/ 20 1021.1
64 E VA BEACH    0850   46 52  220/ 19/ 23 1020.8    5/10   3/10
DUCK             0800   43 42  200/ 11/ 14 1021.0
2 E DUCK         0811      42                N/A     3/10   2/11
10 NE DUCK       NOT AVBL
OREGON INLET     0800   45 45  220/ 15/ 17 1022.5
HATTERAS CG      0800   45 50  240/  6/ 12 1023.3
CAPE LOOKOUT     0900   49     230/  9/ 12 1022.5
BEAUFORT LAB     0800   49 53  240/  6/  9 1022.3
27 SE WRIGHTSVLE 0800   50 64  240/ 14/ 17 1024.7
5 SE WRIGHTSVLE  0800   52 55  220/ 16/ 19 1023.1
225 S CAPE HAT   0850   54 67  350/  4/  8 1025.1    5/ 9   5/ 9
41 SE CHARLESTON 0850   59 69  210/ 16/ 19 1023.0    3/ 8   2/ 8

$$


USA.gov is the U.S. government's official web portal to all federal, state and local government web resources and services.